Temp
-9 -9 -9 -9 -9 -9 -10 -10 -9 -9 -10 -9 -9 -10 -10 -10 -10 -10 -10 -10 -10 -10 -10 -10 -10 -10 -10 -10 -10 -10 -10 -10 -10 -10 -10 -10 -10 -10 -10 -10 -10 -10 -10 -10 -10 -10 -10 -9 -9
-9 -9 -9 -9 -9 -9 -10 -10 -10 -10 -9 -9 -9 -10 -10 -10 -10 -10 -10 -10 -10 -10 -10 -10 -10 -10 -10 -10 -10 -10 -10 -10 -10 -10 -10 -10 -10 -10 -10 -10 -10 -10 -10 -10 -10 -10 -10 -10 -10
-8 -9 -9 -9 -9 -9 -9 -9 -10 -9 -9 -9 -10 -10 -10 -10 -10 -10 -10 -9 -10 -10 -10 -10 -9 -10 -10 -10 -10 -10 -10 -10 -10 -10 -10 -11 -11 -10 -10 -10 -10 -10 -10 -9 -10 -10 -10 -10 -10
-8 -8 -8 -8 -8 -9 -9 -9 -9 -9 -9 -9 -9 -9 -9 -9 -10 -10 -10 -9 -10 -9 -9 -9 -9 -9 -9 -10 -10 -10 -10 -10 -10 -10 -10 -10 -10 -10 -10 -10 -10 -10 -10 -10 -10 -10 -10 -10 -10
-8 -8 -8 -8 -8 -9 -9 -9 -9 -9 -9 -9 -10 -9 -9 -9 -9 -9 -10 -9 -9 -9 -9 -9 -9 -9 -9 -9 -9 -9 -9 -9 -10 -10 -10 -10 -10 -10 -10 -10 -10 -10 -10 -10 -10 -10 -10 -10 -10
-9 -9 -9 -9 -9 -9 -9 -9 -9 -9 -9 -9 -9 -9 -9 -9 -9 -9 -10 -9 -9 -10 -9 -9 -9 -9 -9 -9 -9 -9 -9 -9 -9 -9 -9 -9 -9 -9 -10 -10 -9 -9 -10 -9 -9 -9 -9 -9 -9
-9 -9 -9 -9 -9 -9 -9 -9 -9 -9 -9 -9 -9 -9 -9 -9 -10 -10 -9 -9 -9 -9 -9 -9 -9 -9 -9 -9 -9 -9 -9 -9 -9 -9 -9 -9 -9 -9 -9 -9 -9 -9 -9 -9 -9 -9 -9 -9 -9
-9 -9 -9 -10 -10 -10 -10 -9 -9 -9 -9 -9 -9 -9 -10 -9 -10 -10 -10 -9 -9 -9 -9 -9 -9 -9 -9 -9 -9 -10 -10 -9 -9 -9 -9 -9 -9 -9 -9 -9 -9 -9 -9 -9 -9 -9 -9 -9 -9
-9 -10 -10 -10 -10 -10 -10 -10 -10 -10 -9 -10 -9 -10 -9 -9 -9 -9 -10 -10 -10 -9 -9 -9 -9 -9 -9 -9 -9 -9 -10 -10 -10 -9 -9 -9 -9 -9 -9 -9 -9 -9 -9 -9 -9 -9 -9 -9 -9
-9 -10 -10 -10 -10 -10 -10 -10 -10 -10 -10 -10 -9 -9 -9 -10 -10 -10 -10 -9 -9 -9 -9 -9 -9 -9 -9 -9 -9 -9 -9 -9 -9 -9 -9 -9 -9 -9 -9 -9 -9 -9 -9 -9 -9 -9 -9 -9 -9
-9 -10 -10 -10 -10 -10 -10 -10 -10 -10 -10 -11 -10 -10 -10 -10 -10 -10 -10 -10 -10 -10 -9 -9 -10 -9 -9 -9 -9 -9 -9 -9 -9 -9 -9 -9 -9 -9 -9 -9 -9 -9 -9 -9 -9 -9 -9 -9 -9
-9 -10 -11 -10 -10 -10 -11 -10 -10 -9 -11 -11 -11 -10 -11 -10 -10 -10 -10 -10 -10 -10 -10 -9 -9 -9 -9 -9 -9 -9 -9 -9 -9 -9 -10 -9 -9 -9 -10 -9 -9 -9 -9 -9 -9 -9 -9 -9 -9
-10 -10 -10 -11 -10 -11 -12 -11 -10 -10 -12 -11 -11 -11 -11 -11 -11 -11 -10 -10 -10 -10 -10 -10 -9 -9 -9 -9 -10 -9 -9 -10 -10 -10 -10 -10 -10 -10 -10 -10 -10 -10 -10 -9 -10 -9 -9 -9 -9
-10 -10 -10 -10 -11 -11 -12 -11 -10 -11 -12 -11 -11 -11 -11 -11 -11 -11 -11 -11 -10 -10 -10 -10 -10 -9 -9 -9 -10 -10 -9 -9 -10 -10 -10 -10 -10 -10 -10 -10 -10 -10 -10 -10 -10 -10 -10 -10 -10
-10 -10 -10 -11 -11 -12 -12 -10 -10 -11 -12 -11 -11 -11 -11 -11 -11 -11 -11 -11 -11 -10 -10 -10 -10 -10 -10 -10 -10 -10 -10 -9 -10 -10 -10 -10 -10 -10 -10 -10 -10 -10 -10 -10 -10 -10 -10 -10 -10
-11 -10 -11 -11 -11 -11 -11 -10 -10 -11 -11 -11 -11 -11 -11 -11 -11 -11 -11 -11 -11 -10 -10 -10 -10 -10 -10 -10 -10 -10 -9 -10 -10 -10 -10 -10 -10 -10 -10 -10 -10 -10 -10 -10 -10 -10 -10 -10 -10
-11 -11 -11 -11 -11 -11 -11 -10 -11 -10 -11 -11 -10 -10 -11 -11 -11 -11 -12 -11 -11 -11 -10 -10 -10 -10 -10 -10 -10 -10 -10 -10 -10 -10 -10 -10 -10 -10 -10 -10 -10 -10 -10 -11 -10 -10 -10 -10 -10
-11 -11 -11 -10 -11 -11 -11 -10 -10 -11 -10 -10 -10 -10 -10 -11 -11 -12 -11 -11 -11 -10 -10 -10 -10 -10 -10 -10 -10 -10 -10 -10 -10 -10 -10 -10 -10 -10 -10 -11 -11 -11 -11 -11 -11 -10 -10 -10 -10
-11 -11 -10 -10 -11 -11 -10 -9 -9 -9 -9 -9 -10 -10 -10 -10 -10 -11 -11 -11 -10 -10 -11 -11 -10 -10 -10 -10 -10 -9 -10 -10 -10 -10 -10 -10 -10 -10 -11 -11 -11 -11 -11 -11 -11 -11 -10 -10 -10
-11 -11 -11 -10 -11 -11 -9 -8 -9 -9 -9 -10 -10 -10 -10 -10 -10 -11 -11 -11 -11 -11 -10 -10 -10 -10 -10 -9 -10 -10 -10 -10 -10 -10 -10 -11 -11 -11 -11 -11 -11 -11 -11 -11 -11 -11 -11 -11 -10
-12 -12 -11 -11 -11 -10 -9 -7 -9 -9 -9 -10 -10 -9 -10 -10 -10 -10 -10 -11 -11 -11 -11 -10 -10 -10 -10 -10 -10 -10 -10 -10 -10 -11 -11 -11 -11 -11 -11 -11 -11 -11 -11 -11 -11 -11 -11 -11 -11
-11 -13 -12 -11 -11 -10 -9 -6 -7 -8 -9 -9 -9 -10 -10 -10 -11 -10 -11 -11 -11 -11 -11 -11 -10 -10 -10 -9 -10 -10 -10 -10 -10 -10 -10 -11 -11 -11 -11 -11 -11 -11 -11 -11 -11 -11 -11 -11 -11
-12 -13 -13 -12 -11 -10 -9 -9 -7 -8 -9 -8 -9 -9 -11 -11 -11 -11 -11 -11 -11 -11 -11 -11 -10 -10 -10 -10 -10 -10 -10 -10 -10 -11 -11 -11 -12 -11 -11 -12 -12 -12 -11 -11 -11 -11 -11 -11 -11
-12 -12 -12 -12 -12 -10 -10 -11 -5 -8 -8 -9 -9 -9 -9 -9 -10 -10 -11 -11 -11 -11 -11 -11 -11 -11 -11 -11 -11 -11 -11 -12 -12 -12 -12 -12 -12 -12 -12 -12 -12 -12 -12 -11 -11 -11 -11 -11 -11
-14 -14 -13 -12 -12 -10 -11 -11 -7 -9 -9 -9 -9 -9 -10 -10 -10 -11 -11 -11 -11 -10 -11 -11 -11 -11 -11 -11 -11 -11 -11 -11 -12 -12 -12 -12 -12 -12 -12 -12 -12 -12 -12 -12 -12 -12 -12 -11 -11
-14 -15 -14 -15 -13 -12 -12 -11 -8 -10 -10 -10 -9 -10 -10 -12 -12 -11 -12 -12 -12 -12 -11 -11 -11 -11 -11 -12 -12 -11 -12 -12 -12 -12 -12 -12 -12 -13 -13 -13 -13 -13 -12 -12 -12 -12 -12 -12 -12
-14 -14 -15 -16 -16 -15 -11 -11 -10 -10 -10 -10 -10 -10 -11 -13 -13 -14 -14 -14 -14 -13 -13 -12 -11 -12 -12 -12 -13 -13 -13 -13 -12 -13 -13 -13 -13 -13 -13 -13 -14 -13 -13 -13 -12 -12 -12 -12 -13
-16 -15 -16 -17 -17 -16 -15 -13 -11 -10 -11 -12 -12 -12 -13 -15 -15 -17 -16 -16 -15 -14 -14 -13 -13 -13 -13 -14 -13 -12 -13 -13 -13 -13 -13 -13 -13 -13 -13 -13 -14 -14 -14 -14 -13 -13 -13 -13 -13
-16 -16 -15 -16 -17 -17 -17 -16 -13 -13 -12 -12 -13 -13 -15 -16 -16 -16 -16 -16 -16 -16 -16 -15 -15 -15 -15 -14 -14 -13 -13 -13 -13 -14 -14 -14 -14 -14 -13 -13 -13 -14 -14 -14 -15 -15 -15 -14 -14
-17 -17 -17 -18 -17 -18 -19 -18 -15 -15 -14 -14 -14 -15 -16 -16 -18 -17 -17 -18 -17 -16 -16 -16 -16 -16 -15 -15 -14 -14 -15 -15 -15 -15 -15 -15 -15 -15 -15 -14 -14 -14 -15 -15 -15 -15 -15 -15 -15
Height
5875 5874 5873 5872 5872 5869 5867 5866 5864 5864 5863 5862 5861 5861 5860 5860 5859 5860 5858 5856 5856 5856 5856 5856 5856 5856 5857 5857 5857 5858 5857 5857 5857 5859 5859 5859 5860 5861 5862 5863 5864 5865 5866 5867 5867 5868 5868 5868 5869
5875 5874 5873 5871 5871 5868 5866 5865 5864 5863 5862 5861 5860 5859 5858 5858 5857 5855 5856 5855 5855 5855 5855 5855 5855 5855 5855 5856 5857 5857 5858 5858 5859 5858 5859 5860 5861 5861 5862 5864 5864 5865 5865 5867 5867 5869 5868 5868 5869
5875 5873 5873 5871 5870 5868 5866 5864 5864 5863 5862 5860 5859 5858 5857 5856 5855 5854 5853 5853 5854 5853 5854 5854 5854 5854 5854 5855 5855 5855 5856 5857 5858 5858 5859 5859 5859 5860 5861 5862 5863 5864 5863 5865 5866 5867 5868 5868 5868
5874 5873 5873 5871 5868 5867 5865 5864 5863 5862 5861 5860 5858 5858 5857 5855 5854 5853 5851 5851 5851 5852 5852 5852 5852 5852 5853 5853 5853 5853 5854 5854 5855 5856 5856 5857 5858 5858 5859 5860 5861 5861 5861 5863 5863 5865 5865 5866 5867
5874 5873 5872 5871 5869 5868 5866 5865 5863 5862 5861 5859 5858 5857 5856 5855 5854 5852 5850 5850 5849 5849 5849 5850 5850 5851 5851 5852 5852 5852 5852 5853 5853 5854 5854 5855 5856 5857 5857 5858 5858 5859 5860 5861 5861 5862 5862 5863 5863
5874 5872 5871 5870 5869 5867 5866 5865 5864 5863 5861 5859 5857 5855 5855 5854 5853 5851 5849 5849 5848 5847 5847 5847 5847 5848 5848 5849 5849 5849 5849 5850 5851 5852 5852 5852 5854 5854 5855 5856 5856 5857 5858 5858 5858 5859 5859 5860 5860
5873 5871 5870 5869 5868 5867 5867 5865 5864 5862 5860 5859 5857 5855 5854 5852 5851 5850 5849 5848 5847 5846 5845 5845 5844 5845 5845 5845 5846 5846 5847 5847 5848 5849 5849 5850 5850 5850 5851 5851 5852 5854 5854 5855 5855 5856 5857 5856 5857
5870 5870 5869 5867 5867 5866 5865 5864 5863 5861 5860 5858 5856 5855 5853 5852 5850 5849 5847 5846 5845 5844 5843 5842 5842 5842 5842 5842 5842 5842 5842 5843 5843 5844 5845 5846 5846 5847 5847 5848 5849 5850 5851 5851 5852 5852 5852 5853 5853
5867 5866 5865 5865 5864 5863 5862 5860 5858 5858 5857 5855 5855 5852 5851 5850 5849 5848 5846 5844 5843 5841 5840 5839 5839 5838 5838 5838 5838 5838 5838 5837 5838 5839 5839 5840 5841 5841 5842 5843 5844 5845 5846 5846 5846 5847 5847 5847 5847
5862 5862 5860 5860 5859 5858 5857 5856 5854 5855 5852 5850 5850 5849 5847 5846 5845 5844 5843 5842 5840 5839 5837 5836 5836 5835 5834 5834 5833 5833 5833 5833 5833 5833 5833 5834 5835 5836 5837 5838 5839 5839 5840 5840 5840 5840 5840 5841 5841
5859 5858 5854 5854 5852 5851 5850 5850 5849 5849 5848 5843 5844 5843 5844 5842 5839 5839 5838 5837 5836 5835 5834 5833 5832 5831 5830 5830 5829 5828 5828 5828 5827 5827 5828 5828 5828 5829 5830 5830 5830 5831 5832 5832 5833 5833 5834 5834 5835
5853 5852 5848 5850 5845 5844 5842 5843 5844 5842 5841 5838 5838 5837 5836 5835 5834 5832 5831 5831 5831 5829 5828 5828 5827 5827 5825 5825 5824 5822 5822 5822 5821 5822 5822 5822 5822 5823 5823 5823 5823 5824 5824 5825 5826 5826 5827 5827 5828
5845 5845 5843 5842 5840 5836 5834 5836 5833 5838 5831 5831 5830 5830 5828 5827 5827 5825 5824 5824 5822 5823 5822 5822 5820 5820 5819 5819 5818 5817 5816 5816 5816 5816 5816 5816 5817 5816 5816 5816 5816 5816 5816 5816 5817 5817 5818 5818 5818
5837 5837 5838 5838 5835 5830 5825 5828 5826 5833 5822 5824 5824 5821 5820 5820 5818 5818 5818 5816 5815 5814 5813 5812 5813 5812 5812 5812 5811 5810 5809 5808 5808 5808 5808 5808 5808 5808 5809 5809 5809 5809 5808 5808 5809 5809 5809 5809 5809
5829 5828 5829 5833 5828 5821 5816 5819 5823 5822 5816 5817 5816 5814 5813 5812 5811 5810 5809 5808 5806 5806 5804 5804 5804 5804 5805 5804 5804 5803 5802 5801 5801 5801 5801 5801 5801 5802 5802 5802 5802 5802 5801 5801 5800 5800 5800 5800 5799
5821 5818 5820 5827 5820 5814 5808 5807 5820 5813 5808 5810 5808 5807 5805 5805 5803 5803 5801 5800 5798 5797 5797 5795 5795 5795 5795 5796 5796 5795 5795 5794 5794 5794 5794 5794 5794 5794 5795 5795 5795 5795 5794 5793 5792 5792 5792 5791 5790
5816 5806 5806 5810 5817 5807 5800 5794 5811 5806 5800 5799 5800 5799 5798 5798 5797 5796 5793 5791 5789 5789 5788 5787 5786 5787 5786 5786 5786 5786 5785 5787 5786 5786 5787 5786 5787 5787 5787 5787 5787 5787 5786 5785 5784 5784 5783 5782 5781
5803 5796 5796 5796 5809 5798 5786 5783 5789 5797 5792 5790 5792 5792 5790 5789 5791 5788 5783 5782 5780 5780 5780 5779 5778 5779 5778 5778 5777 5776 5776 5778 5777 5777 5777 5778 5778 5778 5778 5779 5779 5778 5777 5776 5775 5774 5773 5773 5772
5791 5788 5786 5790 5793 5780 5776 5769 5774 5780 5784 5784 5784 5783 5782 5778 5780 5779 5776 5773 5772 5772 5771 5770 5769 5770 5769 5769 5768 5767 5768 5767 5767 5766 5767 5768 5769 5769 5769 5769 5768 5767 5767 5766 5765 5763 5763 5762 5762
5784 5781 5778 5777 5780 5772 5765 5759 5765 5770 5771 5775 5773 5771 5771 5770 5770 5769 5767 5765 5764 5763 5763 5762 5760 5760 5759 5759 5758 5759 5758 5757 5757 5756 5758 5759 5758 5758 5759 5758 5758 5757 5757 5756 5754 5753 5753 5753 5752
5776 5773 5771 5763 5765 5762 5757 5745 5757 5765 5765 5762 5764 5763 5761 5761 5759 5758 5756 5755 5754 5753 5751 5751 5750 5750 5749 5750 5749 5749 5749 5748 5748 5747 5747 5746 5748 5748 5747 5746 5746 5746 5745 5745 5745 5745 5744 5742 5742
5760 5763 5759 5757 5754 5747 5750 5731 5745 5756 5758 5758 5754 5753 5753 5749 5748 5747 5746 5743 5742 5742 5740 5739 5739 5739 5738 5739 5738 5739 5738 5737 5737 5736 5735 5737 5737 5737 5736 5735 5734 5734 5733 5733 5733 5732 5733 5734 5734
5752 5750 5750 5748 5745 5741 5736 5735 5731 5733 5742 5745 5748 5748 5745 5742 5739 5737 5733 5732 5731 5730 5727 5726 5726 5726 5726 5726 5726 5726 5727 5726 5725 5724 5725 5725 5725 5725 5724 5724 5722 5720 5720 5720 5720 5720 5720 5721 5720
5741 5738 5736 5733 5731 5731 5731 5729 5723 5730 5722 5722 5729 5732 5733 5727 5730 5728 5725 5722 5720 5720 5719 5717 5715 5713 5714 5714 5714 5715 5714 5713 5713 5714 5714 5714 5714 5714 5715 5714 5713 5711 5710 5709 5708 5708 5708 5707 5707
5728 5726 5720 5717 5716 5722 5720 5719 5719 5717 5719 5715 5712 5708 5711 5714 5714 5711 5714 5713 5710 5706 5706 5706 5705 5703 5702 5701 5701 5701 5700 5700 5701 5702 5702 5702 5702 5703 5703 5702 5701 5699 5698 5698 5697 5695 5694 5693 5693
5713 5710 5706 5697 5701 5703 5704 5698 5707 5711 5710 5704 5703 5701 5697 5691 5695 5698 5694 5692 5696 5695 5690 5691 5692 5691 5691 5689 5688 5687 5689 5690 5689 5689 5688 5688 5688 5688 5689 5689 5688 5685 5684 5683 5683 5683 5682 5681 5679
5700 5695 5697 5681 5682 5675 5685 5687 5695 5699 5696 5695 5693 5689 5685 5684 5680 5677 5676 5676 5678 5678 5679 5679 5678 5678 5679 5679 5676 5675 5676 5677 5678 5677 5676 5674 5674 5674 5674 5674 5672 5671 5671 5669 5668 5668 5669 5667 5665
5679 5682 5674 5669 5658 5655 5658 5669 5674 5685 5685 5679 5678 5676 5674 5669 5667 5664 5663 5664 5663 5665 5664 5663 5664 5665 5667 5666 5666 5666 5664 5662 5661 5660 5661 5660 5658 5658 5657 5658 5658 5657 5655 5654 5654 5654 5654 5653 5651
5658 5654 5655 5651 5644 5635 5634 5636 5674 5671 5665 5660 5661 5657 5654 5654 5648 5647 5647 5650 5650 5648 5649 5647 5647 5649 5652 5651 5648 5650 5650 5651 5649 5648 5646 5645 5644 5643 5643 5642 5642 5641 5639 5638 5638 5638 5637 5637 5635
5637 5637 5637 5624 5625 5619 5615 5609 5652 5657 5654 5648 5642 5641 5637 5633 5630 5630 5625 5626 5630 5629 5629 5628 5631 5633 5630 5630 5632 5633 5633 5633 5632 5632 5631 5630 5629 5627 5626 5626 5627 5625 5623 5623 5622 5620 5619 5618 5618
Wind_Speed
13 13 13 13 15 14 13 13 13 12 10 9 9 9 9 8 8 7 7 9 8 8 9 8 6 5 2 0 2 4 7 8 9 9 8 8 7 6 4 3 2 1 2 3 3 4 5 8 10
8 9 10 11 10 9 9 9 9 8 8 7 8 9 10 10 9 10 9 9 10 9 10 10 11 10 8 5 3 3 3 3 4 3 5 5 6 5 4 4 4 3 2 2 2 5 6 6 7
7 9 9 10 9 8 7 7 7 6 6 8 9 11 11 10 9 10 10 11 11 12 11 10 11 12 12 10 9 8 6 5 4 4 5 4 4 4 4 3 2 3 3 3 4 5 7 8 8
7 8 8 9 10 10 9 8 9 9 9 9 11 11 12 12 11 9 10 10 11 14 14 13 12 12 13 13 13 12 12 11 10 8 8 8 6 6 6 6 6 6 6 7 8 10 10 11 11
9 8 8 7 10 10 10 10 9 8 9 10 11 11 11 11 12 10 10 9 9 10 14 16 16 14 13 14 14 14 14 14 14 14 12 10 10 10 9 10 10 11 12 12 13 14 15 16 15
9 10 10 9 9 10 11 10 10 10 9 8 10 12 11 9 9 11 10 10 9 9 11 13 16 18 17 16 17 17 17 17 17 17 15 14 13 13 13 13 14 14 14 15 16 16 16 17 17
14 13 12 13 13 12 11 12 12 14 13 11 10 11 11 10 8 8 9 8 8 8 9 11 13 15 18 19 19 20 21 21 20 20 19 19 18 17 16 17 18 18 19 19 18 19 18 17 17
19 19 18 18 16 16 16 14 14 14 15 15 14 15 15 12 10 9 10 10 10 9 9 9 10 11 14 16 18 20 21 22 22 23 22 22 22 22 22 22 22 23 24 24 24 22 22 21 21
24 23 24 22 23 22 21 19 19 17 17 16 17 18 18 18 17 14 13 14 13 13 13 13 12 11 12 14 15 18 20 22 24 25 25 26 25 24 24 25 27 27 27 27 27 26 26 25 26
29 27 27 28 28 26 25 25 25 22 21 20 22 20 21 22 21 19 18 17 18 16 16 16 15 16 16 17 17 17 19 21 23 25 25 27 28 28 28 28 28 29 29 30 30 29 29 29 29
30 29 30 31 31 31 29 29 29 28 21 26 28 26 22 24 25 24 24 23 22 22 21 20 19 18 18 19 20 21 22 22 22 24 26 28 29 30 30 30 31 31 31 32 33 33 34 35 35
32 30 33 30 35 34 33 32 31 31 25 29 29 28 25 26 27 28 29 28 27 27 26 26 25 23 23 23 22 23 24 25 25 25 26 27 29 31 31 32 32 33 34 34 35 34 35 36 37
33 32 32 32 33 36 36 33 35 27 29 31 29 29 30 31 30 31 31 31 33 32 32 30 30 28 27 25 26 26 26 27 28 27 28 28 28 29 29 31 31 32 33 35 36 37 38 39 39
37 34 31 29 30 34 37 35 35 17 31 30 28 28 28 29 31 31 32 35 34 36 37 37 34 34 32 29 29 30 30 30 30 30 29 29 29 29 29 30 30 32 33 34 35 36 38 39 40
39 37 32 24 27 35 40 36 23 23 32 29 28 28 28 26 26 27 31 33 35 36 38 39 39 37 34 33 32 32 32 32 31 30 31 31 31 31 30 30 31 32 33 35 35 35 36 37 39
40 41 35 22 31 38 43 42 21 30 34 31 32 30 29 29 30 28 29 31 33 32 33 36 36 36 37 36 35 34 34 34 34 33 32 31 31 30 28 29 30 30 32 33 34 35 35 36 40
39 47 45 39 29 39 44 48 29 34 39 39 36 35 33 30 32 32 33 35 35 34 34 35 36 36 36 35 35 35 38 34 35 33 32 34 32 29 29 31 31 33 35 37 37 38 38 39 41
45 49 48 45 30 40 49 50 43 35 42 43 40 37 36 34 29 31 38 38 38 36 35 34 33 32 34 35 35 38 40 37 39 38 35 34 32 30 31 31 31 34 35 36 37 40 41 41 41
51 51 50 45 40 49 49 50 44 38 34 35 35 36 36 37 32 33 35 37 38 34 33 35 35 34 35 36 38 39 39 39 39 39 38 35 33 33 32 32 34 35 35 36 37 38 38 40 43
51 52 53 54 50 54 53 51 48 43 39 32 30 30 29 32 32 33 37 40 39 37 36 37 38 36 38 39 39 39 38 40 40 38 34 34 36 36 34 35 36 37 38 39 39 39 39 39 40
50 53 54 56 52 53 55 55 49 42 36 34 32 34 35 32 34 35 39 40 41 40 41 41 41 42 41 40 40 40 40 42 38 36 38 40 39 38 38 38 38 39 40 41 42 43 43 42 42
53 44 49 52 56 57 55 53 47 42 41 39 38 38 32 33 31 33 37 39 38 39 40 42 44 46 46 44 44 44 44 45 42 44 43 41 40 40 40 39 41 42 43 43 43 44 45 45 45
53 55 54 54 57 58 56 60 55 52 46 39 34 32 36 30 34 34 37 40 40 40 41 43 43 44 46 45 45 45 46 47 47 47 45 43 42 41 42 43 44 45 45 46 47 47 46 47 48
53 54 56 57 58 60 57 57 51 55 57 59 53 44 48 51 42 38 38 42 41 43 43 42 41 43 42 44 47 49 50 48 47 44 43 43 43 44 44 44 47 51 51 51 51 51 51 51 53
52 55 58 63 65 62 63 61 56 61 60 65 65 65 62 58 57 54 44 44 48 43 46 45 46 46 46 46 47 49 52 52 47 45 44 45 47 48 49 49 51 54 57 56 56 55 54 55 55
56 57 61 64 65 68 68 73 64 62 63 67 66 68 67 69 63 59 56 49 47 47 43 45 47 43 42 41 44 48 50 50 47 47 47 49 51 51 52 52 53 53 55 55 57 57 56 57 57
61 60 54 60 62 70 76 76 73 68 68 66 67 72 72 66 65 60 53 39 35 36 36 42 45 39 39 46 52 49 45 46 51 52 52 55 56 55 56 54 52 54 56 57 57 57 59 60 61
68 67 65 63 65 67 67 68 75 75 72 70 70 68 67 65 59 44 35 39 33 38 39 47 45 46 46 46 53 58 58 54 56 56 58 61 62 60 57 58 55 56 58 59 59 57 58 59 59
72 74 76 75 75 78 78 75 59 61 69 69 65 65 61 51 51 55 56 48 35 39 41 47 49 55 54 50 53 56 59 61 64 63 60 60 59 60 61 61 61 59 59 58 57 57 59 60 60
75 73 70 69 73 70 67 71 59 53 47 57 57 61 53 45 48 52 39 33 40 53 58 61 62 61 59 54 57 55 58 63 63 60 61 60 61 61 61 60 61 59 57 56 57 57 58 58 59
Wind_Direction
310 317 316 318 324 329 324 312 314 323 315 310 321 324 318 313 297 283 282 291 303 306 303 307 304 316 328 143 111 98 115 115 114 125 132 135 139 130 130 124 110 58 305 301 305 294 300 295 291
332 333 338 345 344 336 330 331 334 328 323 335 338 332 327 319 307 290 267 264 275 279 286 288 293 294 296 298 292 245 202 176 159 155 148 153 149 149 154 167 170 175 200 266 285 273 267 279 286
343 345 358 4 11 3 2 345 339 329 348 350 3 0 356 344 323 297 288 268 261 264 268 270 276 278 283 282 284 288 278 264 246 229 228 222 215 188 188 206 218 229 234 253 251 266 272 269 271
351 349 2 359 7 19 24 12 357 350 2 3 2 3 2 357 352 336 306 293 279 266 261 262 263 268 271 277 281 282 284 286 283 279 274 265 254 248 252 259 265 273 278 279 287 286 284 282 283
340 345 347 349 345 358 4 11 359 352 4 357 355 350 355 352 355 350 343 316 293 274 262 258 258 258 263 266 267 269 274 279 280 276 269 267 272 275 273 273 276 279 282 283 286 288 286 282 280
322 323 331 336 335 336 335 342 336 331 342 346 347 339 346 338 339 343 340 338 332 308 281 266 258 256 256 258 263 266 268 267 266 266 267 266 265 266 268 266 266 270 275 279 280 283 284 280 278
319 318 323 326 329 327 323 324 327 325 326 332 331 326 330 334 324 316 322 324 324 316 307 295 279 266 258 256 258 259 260 263 261 260 260 263 261 260 259 264 268 267 268 273 276 278 276 276 269
308 312 315 317 319 319 319 318 315 316 318 321 320 320 326 328 317 307 296 295 298 299 297 294 288 279 270 267 265 262 260 259 261 262 258 257 259 262 262 262 262 263 265 267 269 272 273 272 268
300 303 304 305 306 305 305 304 302 305 306 302 306 304 307 309 310 306 300 294 288 285 280 276 274 276 277 274 270 267 264 260 258 256 253 253 255 261 264 262 262 263 265 266 268 269 269 270 268
294 298 297 300 299 298 298 295 295 298 297 282 294 290 295 295 294 293 290 288 288 287 282 278 274 272 273 271 269 269 267 265 263 260 256 256 257 258 259 261 262 261 261 263 266 267 267 268 270
293 295 293 294 293 293 291 290 293 295 289 279 287 290 290 282 283 287 286 283 282 280 280 281 278 275 273 273 272 268 266 266 265 265 264 263 263 264 264 264 266 265 266 268 269 269 270 269 269
292 292 288 291 292 292 287 288 289 292 286 282 286 286 279 269 273 277 279 279 279 277 276 276 277 278 276 271 270 270 268 266 264 264 265 264 264 265 265 265 266 267 267 267 266 267 267 266 268
291 287 288 289 292 290 287 287 286 297 285 281 284 285 281 275 272 272 273 276 275 276 276 276 274 273 273 274 268 268 270 269 266 262 262 263 263 264 266 269 269 271 273 273 273 273 271 270 272
290 290 289 292 294 289 285 279 290 298 277 283 286 287 285 280 276 273 272 270 273 276 275 273 273 272 271 271 269 268 271 274 272 268 264 262 262 264 267 269 272 275 277 277 275 273 274 273 272
288 286 286 295 286 281 277 280 298 285 273 280 281 290 293 289 285 279 269 268 267 267 271 274 274 272 272 270 270 269 270 273 272 269 264 259 258 260 266 271 272 273 275 276 277 277 275 274 273
287 287 288 272 268 274 277 283 280 277 276 274 278 280 284 282 281 276 273 271 268 271 272 270 270 269 270 271 269 269 270 273 271 268 265 259 260 261 264 268 269 271 272 273 274 275 276 276 274
293 289 283 280 284 285 282 283 282 271 270 272 272 274 276 275 276 275 270 272 276 277 275 272 267 268 270 272 271 269 270 273 271 270 264 258 259 260 261 263 265 267 267 267 268 270 273 275 274
286 283 286 288 292 283 280 279 276 266 271 275 279 277 275 273 272 267 266 271 270 272 273 272 270 268 269 268 267 268 271 273 272 269 265 260 259 259 262 264 266 268 267 267 269 270 270 272 272
280 283 285 289 291 283 278 278 283 282 278 284 283 280 276 274 269 262 267 266 269 271 267 264 266 266 268 269 265 265 271 270 269 267 263 260 260 262 267 271 271 269 268 268 269 270 270 271 271
277 281 283 286 287 280 282 280 282 289 292 291 284 282 273 272 268 262 264 265 269 268 264 263 262 265 267 269 269 268 267 271 268 266 265 261 260 265 271 275 274 272 272 272 272 272 271 270 269
275 277 281 279 280 279 285 284 286 288 291 288 284 280 284 276 268 267 268 266 268 268 263 262 263 264 267 267 270 266 266 269 267 262 256 256 262 267 272 273 272 272 274 275 275 276 274 272 272
271 272 272 276 278 283 283 285 288 292 292 289 288 287 274 273 275 272 270 269 264 262 263 262 261 263 266 268 265 263 262 265 267 265 263 263 264 269 271 272 274 275 276 278 280 278 275 275 276
274 272 271 272 273 275 278 288 299 303 298 294 290 289 285 263 270 268 271 269 267 264 263 264 265 266 267 267 263 259 260 262 264 265 265 266 267 268 271 273 274 274 275 277 279 280 280 280 282
276 274 274 271 268 272 278 282 280 290 295 300 294 288 283 284 276 266 265 267 268 270 270 267 263 261 262 262 264 264 264 267 266 265 265 265 267 271 274 276 279 281 280 278 277 277 278 279 284
277 275 274 273 272 275 277 275 278 281 289 291 291 291 292 288 285 287 278 275 274 269 273 274 269 267 266 264 265 264 263 264 263 264 267 270 272 273 274 275 276 279 279 278 278 278 277 278 281
277 275 274 277 279 276 274 271 275 279 283 284 286 285 287 288 290 285 287 283 277 276 266 264 268 267 271 271 264 267 267 264 265 267 268 269 269 272 276 278 280 280 280 279 279 280 279 280 281
277 272 278 272 270 271 274 277 279 281 280 278 280 279 280 288 288 291 292 287 287 277 268 263 255 253 272 270 267 263 260 263 267 270 271 272 275 276 277 278 279 281 280 278 277 278 278 278 279
276 275 272 271 274 272 270 270 282 287 283 281 281 281 282 283 281 282 274 274 273 258 246 237 240 247 266 262 260 263 264 263 267 270 273 274 277 278 278 279 279 279 279 277 276 276 275 275 276
279 276 276 277 276 279 281 276 280 275 276 277 271 270 275 279 282 278 275 275 253 249 243 240 248 254 263 264 258 255 258 260 266 270 274 274 273 274 274 274 275 276 276 274 274 273 272 272 272
276 278 280 282 285 282 282 275 276 273 271 267 273 281 273 264 278 279 265 248 248 243 245 248 254 256 262 262 247 254 256 257 266 268 273 276 274 273 273 275 277 274 271 269 269 269 269 269 268